SCP
0 0 0 0 0 0 0 -0 -0 -0 0 0 0 0 0 0 0 0 0 0 0 0 0 0 0 0 0 0 0 0 0 0 0 0 0 0 0 0 0 0 0 0 0 0
0 0 0 0 0 0 0 -0 -0 -0 0 0 0 0 0 0 0 0 0 0 0 0 0 0 0 0 0 0 0 0 0 0 0 0 0 0 0 0 0 0 0 0 0 0
0 0 0 0 0 0 0 0 0 0 0 0 0 0 0 0 0 0 0 0 0 0 0 0 0 0 0 0 0 0 0 0 0 0 0 0 0 0 0 0 0 0 0 0
0 0 0 0 0 0 0 0 0 0 0 0 0 0 0 0 0 0 0 0 0 0 0 0 0 0 0 0 0 0 0 0 0 0 0 0 0 0 0 0 0 0 0 0
0 0 0 0 0 0 0 0 0 0 0 0 0 0 0 0 -0 -0 -0 -0 0 0 0 0 0 0 0 0 0 0 0 0 0 0 0 0 0 0 0 0 0 0 0 0
0 0 0 0 0 0 0 0 0 0 0 0 0 0 -0 -0 -0 -0 -0 -0 -0 0 0 0 0 0 0 0 0 0 0 0 0 0 0 0 0 0 0 0 0 0 0 0
0 0 0 0 0 0 0 0 0 0 0 0 0 0 -0 -0 -0 -0 -0 -0 -0 -0 0 0 0 0 0 0 0 0 0 0 0 0 0 0 0 0 0 0 0 0 0 0
0 0 0 0 0 0 0 0 0 0 0 0 0 0 0 0 -0 -0 -0 -0 0 0 0 0 0 0 0 0 0 0 0 0 0 0 0 0 0 0 0 0 0 0 0 0
0 0 0 0 0 0 0 0 0 0 0 0 0 0 0 0 0 0 0 0 0 0 0 0 0 0 0 0 0 0 0 0 0 0 0 0 0 0 0 0 0 0 0 0
0 0 0 0 0 0 0 0 0 0 0 0 0 0 0 0 0 0 0 0 0 0 0 0 0 0 0 0 0 0 0 0 0 0 0 0 0 0 0 0 0 0 0 0
0 0 0 0 0 0 0 0 0 0 0 0 0 0 0 0 0 0 0 0 0 -0 0 0 0 0 0 0 0 0 0 0 0 0 0 0 0 0 0 0 0 0 0 0
0 0 0 0 0 0 0 0 0 0 0 0 0 0 0 0 0 0 0 0 0 -0 0 0 0 0 0 0 0 0 0 0 0 0 0 0 0 0 0 0 0 0 0 0
0 0 0 0 0 0 0 0 0 0 0 0 0 0 0 0 0 0 0 0 0 0 0 0 0 0 0 0 0 0 0 0 0 0 0 0 0 0 0 0 0 0 0 0
0 0 0 0 0 0 0 0 0 0 0 0 0 0 0 0 0 0 0 0 0 0 0 0 0 0 0 0 0 0 0 0 0 0 0 0 0 0 0 0 0 0 0 0
0 0 0 0 0 0 0 0 0 0 0 0 0 0 0 0 0 0 0 0 0 0 0 0 0 0 0 0 0 0 0 0 0 0 0 0 0 0 0 0 0 0 0 0
0 0 0 0 0 0 0 0 0 0 0 0 0 0 0 0 0 0 0 0 0 0 0 0 0 0 0 0 0 0 0 0 0 0 0 0 0 0 0 0 0 0 0 0
0 0 0 0 0 0 0 0 0 0 0 0 0 0 0 0 0 0 0 0 0 0 0 0 0 0 0 0 0 0 0 0 0 0 0 0 0 0 0 0 0 0 0 0
0 0 0 0 0 0 0 -0 -0 -0 0 0 0 0 0 0 0 0 0 0 0 0 0 0 0 0 0 0 0 0 0 0 0 0 0 0 0 0 0 0 0 0 0 0
0 0 0 0 0 0 0 0 0 0 0 0 0 0 0 0 0 0 0 0 0 0 0 0 0 0 0 0 0 0 0 0 0 0 0 0 0 0 0 0 0 0 0 0
0 0 0 0 0 0 0 0 0 0 0 0 0 0 0 0 0 0 0 0 0 0 0 0 0 0 0 0 0 0 0 0 0 0 0 0 0 0 0 0 0 0 0 0
0 0 0 0 0 0 0 0 0 0 0 0 0 0 0 0 0 0 0 0 0 0 0 0 0 0 0 0 0 0 0 0 0 0 0 0 0 0 0 0 0 0 0 0
0 0 0 0 0 0 0 0 0 0 0 0 0 0 0 0 0 0 0 0 0 0 0 0 0 0 0 0 0 0 0 0 0 0 0 0 0 0 0 0 0 0 0 0
0 0 0 0 0 0 0 0 0 0 0 0 0 0 0 0 0 0 0 0 0 0 0 0 0 0 0 0 0 0 0 0 0 0 0 0 0 0 0 0 0 0 0 0
0 0 0 0 0 0 0 0 0 0 0 0 -0 0 0 0 0 0 0 0 0 0 0 0 0 0 0 0 0 0 0 0 0 0 0 0 0 0 0 0 0 0 0 0
0 0 0 0 0 0 0 0 0 0 0 0 0 0 0 0 0 0 0 0 0 0 0 0 0 0 0 0 0 0 0 0 0 0 0 0 0 0 0 0 0 0 0 0
0 0 0 0 0 0 0 0 0 0 0 0 0 0 0 -0 0 0 0 0 0 0 0 0 0 0 0 0 0 0 0 0 0 0 0 0 0 0 0 0 0 0 0 0
0 0 0 0 0 0 0 0 0 0 0 0 0 0 0 -0 0 0 0 0 0 0 0 0 0 0 0 0 0 0 0 0 0 0 0 0 0 0 0 0 0 0 0 0
Wind_Speed
4 2 2 4 6 6 8 8 9 8 9 12 7 6 5 4 4 4 4 4 4 4 4 4 4 4 4 4 4 4 4 4 4 5 4 4 4 4 4 4 4 4 3 4
2 1 2 5 8 9 9 8 9 9 13 10 5 3 4 5 5 5 5 5 5 4 4 4 4 4 4 4 4 4 4 5 5 5 4 4 4 4 3 4 4 3 3 4
3 2 3 8 9 10 7 8 8 12 12 5 5 6 6 6 6 6 6 5 5 5 5 5 4 4 4 4 4 4 4 5 5 5 4 4 4 3 3 3 3 3 4 4
0 2 6 7 2 6 6 7 9 8 7 5 7 7 7 6 6 6 5 5 5 4 5 4 4 4 4 4 4 4 5 5 5 5 5 4 4 4 4 3 3 3 4 4
2 2 8 7 2 4 5 7 7 9 9 6 4 5 5 4 4 5 5 5 4 4 4 3 4 4 4 4 4 4 5 5 5 5 5 4 4 4 3 3 3 3 3 3
3 3 7 6 2 2 3 6 4 6 7 4 1 3 6 3 3 4 4 3 3 2 2 3 4 3 3 4 4 5 5 5 5 5 4 4 4 3 2 3 3 3 3 3
4 5 10 6 1 3 3 7 3 4 5 4 5 7 6 4 4 4 3 3 2 2 2 3 3 2 3 4 5 5 5 5 5 4 4 3 2 2 2 2 2 2 3 3
5 5 10 3 5 6 7 3 2 3 4 5 6 6 5 5 4 3 3 3 2 2 3 3 3 2 4 5 5 5 4 5 5 4 3 2 2 2 2 2 2 2 2 2
10 9 4 5 7 5 3 4 4 3 4 4 5 6 5 4 4 3 3 3 2 2 3 4 3 3 4 5 4 4 4 4 4 4 3 3 2 2 2 2 1 2 2 2
6 9 6 6 6 5 5 6 5 5 4 4 5 6 5 4 4 3 3 3 2 2 3 4 4 4 4 4 4 3 4 3 3 3 3 3 2 2 1 2 1 1 2 2
7 8 6 6 7 7 6 5 5 5 4 5 5 6 5 4 4 3 3 3 2 3 3 4 4 4 4 4 3 3 3 2 2 2 2 2 2 2 2 2 2 2 2 2
9 7 6 7 5 4 5 6 6 5 5 4 5 6 5 4 4 3 3 3 3 3 3 4 4 4 4 3 2 2 2 2 2 2 2 2 2 3 4 3 4 4 4 3
7 4 5 6 5 4 4 5 5 5 5 5 4 4 4 4 3 3 3 3 3 4 4 4 4 4 4 3 2 2 2 2 2 2 2 2 2 2 3 4 5 5 5 5
7 4 5 5 5 4 4 4 3 3 4 4 3 2 2 3 3 3 4 4 3 3 3 3 3 4 4 2 2 2 2 2 2 2 2 2 2 2 2 2 3 3 4 6
7 7 7 5 4 3 2 2 2 3 3 2 2 2 3 3 4 4 4 3 2 2 3 3 3 4 3 2 2 2 2 2 2 2 2 2 2 2 2 2 2 3 3 4
5 5 5 5 6 5 3 3 4 5 4 3 3 3 3 3 3 4 3 2 2 3 3 3 3 3 2 2 2 1 2 3 3 2 1 1 1 1 2 2 2 2 3 3
4 5 5 5 6 5 5 5 5 5 4 4 4 3 2 2 2 2 2 2 2 3 3 3 3 3 2 1 1 1 1 2 3 2 1 1 1 1 2 2 2 2 3 3
7 7 7 6 6 6 5 5 4 4 4 4 2 2 2 2 3 3 3 2 2 2 3 3 2 1 1 1 1 1 1 1 1 1 2 2 2 2 2 2 2 3 3 3
6 6 6 6 5 5 4 4 4 4 3 3 3 3 3 3 3 2 1 1 1 3 3 2 3 2 1 2 1 1 1 1 1 2 2 2 2 2 2 2 2 2 3 3
4 4 4 4 3 3 4 3 3 2 2 3 2 2 2 2 2 1 1 2 2 3 3 2 2 1 2 1 1 0 1 1 1 1 1 1 1 2 2 2 2 2 2 2
3 3 3 3 2 2 3 3 3 3 2 2 3 3 3 2 1 1 1 2 3 2 2 3 1 1 1 1 1 0 0 1 1 1 1 1 2 2 2 2 2 2 2 2
2 2 2 2 2 2 2 2 2 2 2 1 2 2 1 1 1 1 2 2 2 2 1 1 1 1 1 2 1 0 0 0 1 1 1 1 2 2 2 2 2 2 2 2
2 2 2 2 2 1 1 0 1 2 2 2 2 2 2 2 2 1 2 2 1 2 1 1 2 2 2 1 0 0 0 1 1 1 2 2 2 2 2 2 2 2 2 2
1 1 1 1 1 1 0 1 0 0 1 1 1 2 2 1 1 1 1 2 2 2 1 2 2 2 2 1 0 0 1 1 1 2 2 2 2 2 2 2 2 2 2 3
1 1 1 2 1 1 1 0 1 1 1 1 1 1 1 1 2 1 1 1 2 1 1 2 2 2 1 0 1 1 1 1 2 2 2 2 2 2 2 2 2 2 2 2
1 1 2 2 2 1 1 1 1 0 0 0 1 1 1 1 0 0 0 1 1 1 1 1 1 1 1 1 1 1 1 2 2 2 2 2 2 2 3 3 3 2 2 2
1 1 1 0 0 1 2 2 2 1 1 1 1 1 1 1 1 1 0 0 1 1 1 1 1 1 1 1 1 1 1 1 2 2 2 2 2 2 3 3 3 2 2 2
Wind_Direction
246 248 199 225 221 197 203 207 215 240 246 267 277 275 277 277 283 288 287 286 284 289 294 302 307 311 311 313 315 315 313 305 297 297 294 288 287 283 280 277 276 274 277 277
277 243 241 263 247 220 224 227 238 263 271 267 270 271 275 274 273 273 277 280 284 287 291 293 295 300 307 307 310 312 306 300 300 302 300 295 288 285 284 280 279 277 274 274
262 309 338 272 235 206 210 213 201 230 249 279 291 278 267 265 262 260 269 277 279 278 277 280 283 287 293 298 307 310 303 301 302 300 295 292 287 282 278 277 281 279 277 274
204 35 247 250 207 183 205 236 218 239 261 266 264 279 271 252 245 258 270 276 278 281 287 291 292 295 297 301 307 307 304 304 303 300 292 290 288 281 277 276 275 274 274 271
147 241 276 291 236 176 197 266 220 230 258 275 306 317 288 248 230 251 262 268 268 271 280 286 290 295 302 305 310 308 305 303 304 301 296 291 286 282 277 275 274 273 274 268
146 201 246 256 239 178 127 283 240 213 247 260 3 302 277 286 290 282 278 273 276 278 286 284 287 297 301 302 306 303 301 301 301 297 292 288 285 289 287 280 280 285 285 276
181 228 262 255 205 127 172 255 280 223 237 213 213 234 268 294 297 286 281 284 284 280 277 274 283 295 294 297 294 293 298 302 302 298 288 282 288 292 292 292 298 292 290 291
166 210 253 200 144 189 226 270 265 249 239 233 249 270 281 286 288 292 297 298 292 287 289 289 288 289 288 286 289 297 301 303 303 303 300 300 295 292 288 291 292 292 293 304
197 218 243 186 206 229 238 258 258 250 259 249 260 270 276 277 271 276 274 278 285 275 289 297 294 282 278 285 296 303 301 299 305 313 315 313 302 293 292 287 282 289 291 296
252 262 253 245 250 257 246 249 263 261 264 249 255 263 270 271 272 273 278 277 284 282 286 296 301 294 278 288 299 301 301 303 310 316 321 327 321 310 300 291 289 298 300 305
253 272 295 268 233 244 256 259 265 267 255 242 241 257 261 264 265 266 276 284 277 271 277 286 297 295 294 299 302 299 301 306 313 315 316 323 327 322 305 285 285 293 293 295
228 226 215 254 255 241 248 259 257 258 270 258 232 245 256 257 259 261 267 278 282 283 282 287 294 296 301 301 295 290 301 311 312 312 315 322 332 340 347 346 348 341 333 324
233 236 226 255 270 247 241 256 261 251 248 259 255 241 244 254 260 261 264 267 269 272 276 284 292 294 302 304 296 279 279 297 304 312 316 322 328 333 339 348 355 357 355 349
242 245 261 253 257 260 251 260 267 268 259 248 247 248 244 254 257 255 258 262 268 270 275 283 287 291 299 303 296 293 288 290 297 301 304 308 310 318 326 329 334 338 342 349
239 225 237 260 271 271 259 249 260 267 270 273 252 239 241 245 254 264 268 268 271 273 279 284 287 293 305 301 294 300 300 293 293 301 307 307 311 321 326 328 324 327 336 340
249 246 243 247 253 256 251 240 243 256 257 260 261 259 256 254 262 269 267 241 237 267 279 282 285 293 305 299 298 304 305 314 319 316 316 318 323 328 329 328 328 330 330 331
225 244 240 248 250 248 241 238 236 243 246 248 251 256 260 265 273 273 277 269 256 263 273 275 282 293 298 298 290 296 309 318 326 325 323 322 324 326 324 326 326 324 321 331
222 231 231 233 238 244 250 246 237 235 236 240 239 228 226 228 242 262 279 298 314 309 297 287 287 289 299 309 298 302 313 317 315 309 312 321 330 328 324 325 323 320 322 332
232 235 238 237 235 231 236 236 232 230 229 211 209 225 234 237 239 253 266 280 296 298 302 306 311 328 313 306 321 309 306 309 316 321 322 329 337 332 329 326 320 319 324 333
241 238 237 242 241 228 230 231 216 217 218 198 201 224 247 254 238 231 239 257 259 265 278 300 306 303 299 303 325 303 291 297 307 318 327 331 327 325 326 325 322 323 330 331
244 241 234 235 247 244 228 211 196 211 218 194 195 214 235 256 242 210 211 281 294 292 283 290 302 295 304 310 314 323 319 318 314 311 313 313 317 318 320 319 321 322 322 322
244 236 234 228 223 255 252 209 192 193 197 207 209 200 207 245 261 271 250 245 263 292 308 291 285 287 304 318 338 339 320 306 298 298 302 304 306 307 311 315 315 316 317 315
238 229 226 221 216 232 273 214 185 181 191 204 203 204 212 226 225 224 272 272 256 280 301 280 294 305 323 354 7 327 300 293 288 286 287 290 292 292 296 301 302 304 305 306
215 222 225 196 140 134 177 303 349 156 191 226 226 214 202 219 279 268 251 268 285 295 296 292 308 321 347 27 324 283 275 280 285 284 286 287 288 289 291 293 297 299 301 304
199 188 168 153 163 194 204 147 59 52 58 19 333 295 251 212 224 267 290 273 281 322 329 312 323 337 1 313 275 273 275 276 279 281 280 285 290 292 292 292 292 292 295 296
192 200 209 211 208 194 175 161 163 183 149 348 330 331 350 360 100 270 317 321 318 340 342 321 315 331 334 301 289 287 286 293 299 293 286 285 288 290 291 293 295 293 293 293
149 152 143 102 200 182 177 176 181 201 201 195 256 305 355 26 44 41 22 8 1 352 340 338 335 328 317 309 300 295 293 293 291 288 285 281 281 283 287 291 294 297 301 303